sat.trackr.live / text

‹ back to catalog

STARLINK-31753

NORAD 59484 · 2024-071A

PAYLOAD ACTIVE UNKNOWN

§ Identity

Operator
Country
US
Launch date
2024-04-13
Launch site
AFETR
Launch vehicle
Mass (kg)
RCS (m²)

Purposes: comms

External: N2YO · Heavens-Above · Gunter

§ Orbital elements

Epoch: 2026-05-25T01:17:45.549024Z

Period
94.27 min
Inclination
42.9956°
Eccentricity
0.0001195
Mean motion
15.27573351 rev/d
Perigee alt
482.2 km
Apogee alt
483.9 km
Semi-major
6,861.2 km
B*
2.7833e-6
RAAN
268.5633°
Arg perigee
55.5397°
Mean anomaly
304.5567°
Rev number
11,988

§ Raw data

STARLINK-317531 59484U 24071A   26145.05399941 -.00000185  00000+0  27833-5 0  99942 59484  42.9956 268.5633 0001195  55.5397 304.5567 15.27573351119886

JSON: /api/v1/satellites/59484 · /tle

For live sub-satellite position, see the globe view (requires WebGL).

§ Visibility from observer

Set your observer location to see the next 7 days of passes ≥ 10°. The values pass through the URL so the page stays shareable.

No JS? Fill the form by hand. The geolocation button needs JavaScript.